Flag for U.S.A. Weather past 2 weeks in Bloomington, Illinois, U.S.A.

Now
55 °F

Clear.


Feels Like: 55 °F
Forecast: 46 / 69 °F
Wind: No wind

Location: Bloomington / Normal

Current Time: Sep 22, 2014 at 11:36:44 PM

Latest Report: Sep 22, 2014 at 10:56 PM


Visibility: 10 mi

Pressure: 30.29 "Hg

Humidity: 69%

Dew point: 45 °F

Location of BloomingtonLocation

Historic Weather in Bloomington — Graph

°F

Bloomington temperature yesterday

Maximum temperature yesterday: 70 °F (at 11:56 AM)
Minimum temperature yesterday: 32 °F (at 1:56 PM)
Average temperature yesterday: 54 °F

Past Weeks' High & Low Weather Summary

 TemperatureHumidityPressure
High91 °F (Sep 20, 3:56 PM)100% (Sep 13, 3:04 AM)30.42 "Hg (Sep 13, 3:04 AM)
Low32 °F (Sep 19, 11:56 AM)30% (Sep 22, 2:56 PM)29.62 "Hg (Sep 10, 1:56 PM)
Average57 °F77%30.10 "Hg
* Reported Sep 7 9:56 PM — Sep 22 9:56 PM, Bloomington, Weather by CustomWeather, © 2014

Note: Actual official high and low records may vary slightly from our data, if they occured in-between our weather recording intervals... More about our weather records

Advertising

Bloomington weather history for previous 24 hours

 ConditionsComfort  
Time TempWeatherWind HumidityBarometerVisibility
9:56 PM
Sep 22
57 °FClear.No wind67%30.29 "Hg10 mi
8:56 PM56 °FClear.No wind69%30.28 "Hg10 mi
7:56 PM63 °FClear.No wind46%30.27 "Hg10 mi
6:56 PM66 °FSunny.3 mph40%30.25 "Hg10 mi
5:56 PM69 °FSunny.5 mph35%30.25 "Hg10 mi
4:56 PM71 °FSunny.7 mph31%30.24 "Hg10 mi
3:56 PM69 °FSunny.6 mph30%30.26 "Hg10 mi
2:56 PM69 °FSunny.6 mph30%30.26 "Hg10 mi
1:56 PM67 °FSunny.6 mph37%30.28 "Hg10 mi
12:56 PM64 °FSunny.8 mph47%30.30 "Hg10 mi
11:56 AM61 °FSunny.7 mph54%30.31 "Hg10 mi
10:56 AM59 °FSunny.5 mph62%30.32 "Hg10 mi
9:56 AM57 °FSunny.6 mph72%30.31 "Hg10 mi
8:56 AM54 °FSunny.6 mph80%30.31 "Hg10 mi
7:56 AM49 °FSunny.7 mph86%30.29 "Hg10 mi
6:56 AM45 °FClear.6 mph96%30.27 "Hg10 mi
5:56 AM45 °FClear.5 mph96%30.24 "Hg10 mi
4:56 AM47 °FClear.5 mph96%30.22 "Hg10 mi
3:56 AM49 °FClear.7 mph89%30.20 "Hg10 mi
2:56 AM50 °FClear.6 mph89%30.19 "Hg10 mi
1:56 AM51 °FClear.6 mph89%30.18 "Hg10 mi
12:56 AM53 °FClear.8 mph90%30.16 "Hg10 mi
11:56 PM
Sep 21
54 °FClear.7 mph86%30.15 "Hg10 mi
Weather by CustomWeather, © 2014

See weather overviewHow to use our weather pages